Weather History for KNBT - October, 2012

Change the Weather History Date:

Saturday, October 27, 2012

  Actual Average (KMRH) Record (KMRH)
Temperature  
Mean Temperature 70 °F -  
Max Temperature 73 °F 72 °F 84 °F (1984)
Min Temperature 66 °F 52 °F 30 °F (1962)
Cooling Degree Days 4    
Growing Degree Days 20 (Base 50)    
Moisture  
Dew Point 66 °F    
Average Humidity 84    
Maximum Humidity 100    
Minimum Humidity 76    
Precipitation  
Precipitation 1.60 in - - ()
Sea Level Pressure  
Sea Level Pressure 29.59 in    
Wind  
Wind Speed 23 mph (NNE)    
Max Wind Speed 33 mph    
Max Gust Speed 51 mph    
Visibility 6 miles    
Events Rain    
Averages and records for this station are not official NWS values.
T = Trace of Precipitation, MM = Missing Value Source: NWS Daily Summary

Daily Weather History Graph

Daily Weather History Graph

Search for Another Location

Airport or City:

Trip Planner

Search our weather history database for the weather conditions in past years. The results will help you decide how hot, cold, wet, or windy it might be!

Date:

Astronomy

Oct. 27, 2012 Rise Set
Actual Time 7:22 AM EDT 6:16 PM EDT
Civil Twilight 6:56 AM EDT 6:42 PM EDT
Nautical Twilight 6:26 AM EDT 7:11 PM EDT
Astronomical Twilight 5:57 AM EDT 7:41 PM EDT
Moon 4:58 PM EDT (10/27) 5:18 AM EDT (10/27)
Length of Visible Light 11h 45m
Length of Day
10h 53m
Waxing Gibbous, 96% of the Moon is Illuminated
Oct 27
Waxing Gibbous
Oct 29
Full
Nov 6
Last Quarter
Nov 13
New
Nov 20
First Quarter

Hourly Weather History & Observations

Time (EDT) Temp. Dew Point Humidity Pressure Visibility Wind Dir Wind Speed Gust Speed Precip Events Conditions
12:56 AM 73.0 °F 66.0 °F 79% 29.81 in 10.0 mi NE 17.3 mph 24.2 mph N/A   Clear
1:56 AM 72.0 °F 66.0 °F 81% 29.79 in 10.0 mi NE 16.1 mph 25.3 mph 0.00 in Rain Light Rain
2:56 AM 72.0 °F 66.0 °F 81% 29.76 in 10.0 mi NE 16.1 mph 25.3 mph 0.00 in   Scattered Clouds
3:56 AM 72.0 °F 66.0 °F 81% 29.73 in 10.0 mi NNE 17.3 mph 27.6 mph N/A   Scattered Clouds
4:56 AM 72.0 °F 66.0 °F 81% 29.70 in 10.0 mi NE 20.7 mph 27.6 mph N/A   Clear
5:56 AM 73.0 °F 64.9 °F 76% 29.69 in 10.0 mi NNE 21.9 mph 28.8 mph N/A   Mostly Cloudy
6:56 AM 72.0 °F 64.9 °F 78% 29.67 in 10.0 mi NNE 23.0 mph 33.4 mph N/A   Overcast
7:56 AM 71.1 °F 64.9 °F 81% 29.68 in 9.0 mi NNE 19.6 mph 28.8 mph 0.00 in Rain Light Rain
8:56 AM 71.1 °F 64.9 °F 81% 29.69 in 9.0 mi NNE 21.9 mph 33.4 mph 0.01 in Rain Light Rain
9:56 AM 70.0 °F 66.9 °F 90% 29.68 in 7.0 mi NNE 20.7 mph 29.9 mph 0.02 in Rain Light Rain
10:56 AM 70.0 °F 68.0 °F 93% 29.67 in 5.0 mi NNE 19.6 mph 28.8 mph 0.02 in   Overcast
11:49 AM 69.8 °F 69.8 °F 100% 29.64 in 2.5 mi NNE 23.0 mph 31.1 mph 0.13 in Rain Rain
11:56 AM 70.0 °F - N/A% 29.66 in 3.0 mi NNE 24.2 mph 32.2 mph 0.14 in Rain Rain
12:17 PM 69.8 °F - N/A% 29.63 in 4.0 mi NE 23.0 mph 36.8 mph 0.04 in Rain Light Rain
12:28 PM 69.8 °F - N/A% 29.62 in 5.0 mi NE 24.2 mph 39.1 mph 0.05 in Rain Light Rain
12:56 PM 70.0 °F - N/A% 29.61 in 5.0 mi NNE 26.5 mph 36.8 mph 0.08 in Rain Light Rain
1:56 PM 70.0 °F - N/A% 29.59 in 4.0 mi NNE 24.2 mph 33.4 mph 0.06 in Rain Light Rain
2:56 PM 69.1 °F - N/A% 29.56 in 4.0 mi NNE 21.9 mph 35.7 mph 0.12 in Rain Rain
3:37 PM 69.8 °F - N/A% 29.54 in 2.5 mi NNE 23.0 mph 39.1 mph 0.09 in Rain Rain
3:56 PM 69.1 °F - N/A% 29.55 in 2.5 mi NNE 29.9 mph 39.1 mph 0.13 in Rain Rain
4:00 PM 69.8 °F - N/A% 29.54 in 3.0 mi NNE 28.8 mph 41.4 mph 0.01 in Rain Rain
4:53 PM 68.0 °F - N/A% 29.51 in 2.5 mi North 27.6 mph 38.0 mph 0.10 in Rain Rain
4:56 PM 68.0 °F - N/A% 29.52 in 3.0 mi NNE 29.9 mph 38.0 mph 0.10 in Rain Rain
5:39 PM 68.0 °F - N/A% 29.51 in 2.5 mi North 25.3 mph 38.0 mph 0.09 in Rain Rain
5:51 PM 68.0 °F - N/A% 29.51 in 3.0 mi NNE 28.8 mph 41.4 mph 0.11 in Rain Rain
5:56 PM 68.0 °F - N/A% 29.52 in 3.0 mi North 28.8 mph 41.4 mph 0.12 in Rain Rain
6:56 PM 68.0 °F - N/A% 29.52 in 6.0 mi North 28.8 mph 41.4 mph 0.13 in   Haze
7:56 PM 66.9 °F - N/A% 29.52 in 4.0 mi North 32.2 mph 47.2 mph 0.04 in   Haze
8:53 PM 66.2 °F - N/A% 29.49 in 6.0 mi North 31.1 mph 47.2 mph 0.09 in   Haze
8:56 PM 66.9 °F - N/A% 29.50 in 6.0 mi North 29.9 mph 47.2 mph 0.09 in   Haze
9:14 PM 68.0 °F - N/A% 29.50 in 7.0 mi North 29.9 mph 43.7 mph 0.01 in   Overcast
9:25 PM 68.0 °F - N/A% 29.50 in 7.0 mi North 29.9 mph 50.6 mph 0.02 in   Overcast
9:36 PM 68.0 °F - N/A% 29.50 in 8.0 mi North 27.6 mph 46.0 mph 0.02 in   Overcast
9:56 PM 68.0 °F - N/A% 29.52 in 7.0 mi North 28.8 mph 46.0 mph 0.02 in   Overcast
10:56 PM 66.9 °F - N/A% 29.51 in 3.0 mi North 32.2 mph 42.6 mph 0.27 in Rain Heavy Rain
11:08 PM 66.2 °F - N/A% 29.49 in 2.5 mi North 33.4 mph 43.7 mph 0.07 in Rain Heavy Rain
11:35 PM 66.2 °F - N/A% 29.47 in 2.5 mi North 31.1 mph 46.0 mph 0.20 in   Overcast
11:39 PM 66.2 °F - N/A% 29.47 in 3.0 mi North 32.2 mph 42.6 mph 0.21 in Rain Rain
11:56 PM 66.9 °F - N/A% 29.48 in 4.0 mi North 32.2 mph 42.6 mph 0.25 in Rain Light Rain